Istanbul, Turkey

12:16 AM +03 on October 19, 2017 (GMT +0300)
Ataturk

Weather History for LTBA - December, 2013

Change the Weather History Date:

Thursday, December 26, 2013

  Actual Average Record
Temperature  
Mean Temperature 46 °F -  
Max Temperature 57 °F 46 °F 62 °F (2010)
Min Temperature 35 °F 38 °F 30 °F (2006)
Degree Days  
Heating Degree Days 19    
Moisture  
Dew Point 37 °F    
Average Humidity 63    
Maximum Humidity 93    
Minimum Humidity 37    
Precipitation  
Precipitation 0.00 in - - ()
Sea Level Pressure  
Sea Level Pressure 30.10 in    
Wind  
Wind Speed 3 mph ()    
Max Wind Speed 15 mph    
Max Gust Speed -    
Visibility 4.1 miles    
Events      
Averages and records for this station are not official NWS values.
T = Trace of Precipitation, MM = Missing Value Source: Averaged Metar Reports

Daily Weather History Graph

Daily Weather History Graph

Search for Another Location

Airport or City:

Trip Planner

Search our weather history database for the weather conditions in past years. The results will help you decide how hot, cold, wet, or windy it might be!

Date:

Astronomy

Dec. 26, 2013 Rise Set
Actual Time 7:28 AM EET 4:42 PM EET
Civil Twilight 6:57 AM EET 5:13 PM EET
Nautical Twilight 6:22 AM EET 5:48 PM EET
Astronomical Twilight 5:48 AM EET 6:21 PM EET
Moon 12:34 AM EET (12/26) 12:09 PM EET (12/26)
Length of Visible Light 10h 16m
Length of Day
9h 14m
Last Quarter, 41% of the Moon is Illuminated
Dec 26
Last Quarter
Jan 1
New
Jan 8
First Quarter
Jan 16
Full
Jan 24
Last Quarter

Hourly Weather History & Observations

Time (EET) Temp. Windchill Dew Point Humidity Pressure Visibility Wind Dir Wind Speed Gust Speed Precip Events Conditions
12:20 AM 42.8 °F - 37.4 °F 81% 30.15 in - Calm Calm - N/A   Mist
12:50 AM 42.8 °F - 39.2 °F 87% 30.15 in - Calm Calm - N/A   Mist
1:20 AM 46.4 °F 45.2 °F 39.2 °F 76% 30.12 in - Variable 3.5 mph - N/A   Mist
1:50 AM 42.8 °F - 37.4 °F 81% 30.15 in - Calm Calm - N/A   Mist
2:00 AM 42 °F - 40 °F 88% 30.16 in 2 mi Calm Calm - -   Mist
2:20 AM 39.2 °F - 33.8 °F 81% 30.15 in - Calm Calm - N/A   Mist
2:50 AM 35.6 °F - 33.8 °F 93% 30.15 in - Calm Calm - N/A   Mist
3:20 AM 35.6 °F - 33.8 °F 93% 30.12 in - Calm Calm - N/A   Mist
3:50 AM 37.4 °F - 33.8 °F 87% 30.12 in 1.6 mi Variable 2.3 mph - N/A   Mist
4:20 AM 37.4 °F 34.9 °F 35.6 °F 93% 30.12 in - NNW 3.5 mph - N/A   Mist
4:50 AM 39.2 °F 35.9 °F 35.6 °F 87% 30.12 in 2.5 mi WSW 4.6 mph - N/A   Mist
5:00 AM 39 °F - 34 °F 76% 30.14 in 2 mi WSW 4.6 mph - -   Mist
5:20 AM 42.8 °F 38.6 °F 37.4 °F 81% 30.12 in - SSW 6.9 mph - N/A   Mist
5:50 AM 41.0 °F - 37.4 °F 87% 30.12 in - Variable 1.2 mph - N/A   Mist
6:20 AM 42.8 °F - 39.2 °F 87% 30.12 in - Variable 2.3 mph - N/A   Mist
6:50 AM 42.8 °F - 39.2 °F 87% 30.12 in - Variable 2.3 mph - N/A   Mist
7:20 AM 44.6 °F - 39.2 °F 81% 30.12 in 2.2 mi Variable 2.3 mph - N/A   Mist
7:50 AM 44.6 °F - 39.2 °F 81% 30.12 in - Calm Calm - N/A   Mist
8:00 AM 44 °F - 37 °F 70% 30.15 in 2 mi Calm Calm - -   Mist
8:20 AM 46.4 °F 45.2 °F 37.4 °F 71% 30.12 in 2.2 mi East 3.5 mph - N/A   Mist
8:50 AM 48.2 °F - 39.2 °F 71% 30.12 in 2.8 mi ESE 4.6 mph - N/A   Haze
9:20 AM 50.0 °F - 39.2 °F 66% 30.12 in 4.3 mi ESE 4.6 mph - N/A   Unknown
9:50 AM 50.0 °F - 39.2 °F 66% 30.12 in - ESE 4.6 mph - N/A   Clear
10:20 AM 51.8 °F - 37.4 °F 58% 30.12 in - Variable 1.2 mph - N/A   Clear
10:50 AM 51.8 °F - 37.4 °F 58% 30.12 in - Calm Calm - N/A   Clear
11:00 AM 52 °F - 36 °F 43% 30.15 in 6 mi Calm Calm - -  
11:20 AM 53.6 °F - 35.6 °F 51% 30.12 in - East 6.9 mph - N/A   Clear
11:50 AM 53.6 °F - 35.6 °F 51% 30.12 in - Calm Calm - N/A   Clear
12:20 PM 53.6 °F - 37.4 °F 54% 30.09 in - East 4.6 mph - N/A   Clear
12:50 PM 55.4 °F - 35.6 °F 47% 30.09 in - ESE 4.6 mph - N/A   Clear
1:20 PM 55.4 °F - 35.6 °F 47% 30.06 in - East 5.8 mph - N/A   Clear
1:50 PM 55.4 °F - 35.6 °F 47% 30.06 in - East 5.8 mph - N/A   Clear
2:00 PM 55 °F - 36 °F 37% 30.08 in 6 mi East 5.8 mph - -  
2:20 PM 55.4 °F - 33.8 °F 44% 30.06 in - ESE 4.6 mph - N/A   Clear
2:50 PM 55.4 °F - 35.6 °F 47% 30.06 in - East 4.6 mph - N/A   Clear
3:20 PM 55.4 °F - 33.8 °F 44% 30.06 in - Variable 2.3 mph - N/A   Clear
3:50 PM 53.6 °F - 37.4 °F 54% 30.06 in - East 3.5 mph - N/A   Clear
4:20 PM 53.6 °F - 37.4 °F 54% 30.06 in - East 4.6 mph - N/A   Clear
4:50 PM 51.8 °F - 37.4 °F 58% 30.06 in - East 4.6 mph - N/A   Clear
5:00 PM 52 °F - 38 °F 47% 30.07 in 6 mi East 4.6 mph - -  
5:20 PM 53.6 °F - 39.2 °F 58% 30.04 in - East 5.8 mph - N/A   Clear
5:50 PM 51.8 °F - 39.2 °F 62% 30.06 in - East 6.9 mph - N/A   Clear
6:20 PM 53.6 °F - 39.2 °F 58% 30.06 in - East 8.1 mph - N/A   Clear
6:50 PM 53.6 °F - 35.6 °F 51% 30.06 in - East 9.2 mph - N/A   Clear
7:20 PM 57.2 °F - 37.4 °F 48% 30.06 in - East 12.7 mph - N/A   Clear
7:50 PM 53.6 °F - 35.6 °F 51% 30.06 in - ESE 15.0 mph - N/A   Clear
8:00 PM 54 °F - 36 °F 39% 30.08 in 12 mi ESE 15.0 mph - -  
8:20 PM 53.6 °F - 33.8 °F 47% 30.06 in - ESE 15.0 mph - N/A   Clear
8:50 PM 53.6 °F - 35.6 °F 51% 30.06 in - East 11.5 mph - N/A   Clear
9:20 PM 51.8 °F - 35.6 °F 54% 30.06 in - East 6.9 mph - N/A   Clear
9:50 PM 51.8 °F - 35.6 °F 54% 30.06 in - East 6.9 mph - N/A   Clear
10:20 PM 51.8 °F - 35.6 °F 54% 30.06 in - East 10.4 mph - N/A   Clear
10:50 PM 51.8 °F - 35.6 °F 54% 30.06 in - East 11.5 mph - N/A   Clear
11:00 PM 52 °F - 35 °F 41% 30.07 in 6 mi East 11.5 mph - -  
11:20 PM 51.8 °F - 35.6 °F 54% 30.04 in - ESE 13.8 mph - N/A   Clear
11:50 PM 51.8 °F - 35.6 °F 54% 30.04 in - ESE 15.0 mph - N/A   Clear